Погода в Козьмино

Россия / Архангельская область     61°54′59″N   48°22′50″E
темп.,
°C
ветер,
м/с
пор.,
м/с
влажн.,
%
обл.,
%
осадки,
мм/ч
давл.,
гПа
погр.,
м
8 марта, пн
пн800:00−18всв359999 0.0 1002128
03:00−18всв389899 0.1 1001236
06:00−19св4998100 0.0 1001290
09:00−19св4896100 0.1 1002293
12:00−15св4891100 0.0 1002425
15:00−14св4889100 0.1 1003620
18:00−17ссв4994100 0.1 1005454
21:00−21ссв399696 0.1 1008285
9 марта, вт
вт900:00−25ссв389652 0.0 1009238
03:00−28ссв389530 0.0 1012234
06:00−31с38960 0.0 1013219
09:00−28ссв36922 0.0 1016318
12:00−23с258843 0.0 1017459
15:00−20с358649 0.0 1018589
18:00−25ссз239588 0.0 101969
21:00−28с229646 0.0 102119
10 марта, ср
ср1000:00−29ссз12970 0.0 102119
03:00−30зсз12960 0.0 102119
06:00−30з22961 0.0 102121
09:00−24з249335 0.0 1021250
12:00−19зсз2489100 0.0 1020476
15:00−16з368999 0.0 1019414
18:00−15зсз4119498 0.1 1018584
21:00−12зсз3119399 0.3 1017563
11 марта, чт
чт1100:00−10сз51390100 0.1 1016616
03:00−10сз51488100 0.1 1016681
06:00−12сз51477100 0.0 1018550
09:00−12сз4117988 0.0 1019460
12:00−8зсз5107232 0.0 1019701
15:00−8зсз597617 0.0 1019820
18:00−12з312870 0.0 1019479
21:00−13з413873 0.0 1019486
12 марта, пт
пт1200:00−13з4128488 0.0 1020482
03:00−13з4129093 0.0 1020453
06:00−13зюз41092100 0.0 1020370
09:00−13юз4989100 0.0 1021375
12:00−11юз4983100 0.0 1020489
15:00−9юз5108196 0.0 1019622
18:00−11ююз3118996 0.0 1018496
21:00−12ююз4129178 0.0 1018436